ZHONGXING-6D

Last updated on Sat Nov 01 2025 00:02:50 GMT+0000 (Coordinated Universal Time)

1 52255U 22038A 25303.54403477 -.00000344 00000+0 00000+0 0 9991 2 52255 0.0503 256.7019 0002441 347.8953 115.4135 1.00276001 13123
UTC large
Height (km)
Speed (km/s)
/
Latitude / Longitude
Inclination (degrees)
Orbital Period (minutes)
Azimuth
Elevation
Range (km)
Doppler Factor

Next 0 passes for location: London (51.5072 / 0.1276)

Sorry there are no passes over London.